Temperature
15 15 15 15 13 11 12 13 13 13 13 14 14 14 14 14 15 15 14 14 15 15 15 14 14 14 15 15 15 15 15 15 15 15 15 15 15 15 15 15 15 15 15 14 14 14 14 14 14
14 15 15 14 11 12 12 12 12 13 14 14 14 14 14 13 14 14 14 14 14 14 14 14 14 14 14 14 14 14 14 15 15 15 15 15 15 15 15 15 15 15 14 14 14 14 14 14 14
14 14 14 10 10 11 13 13 12 13 14 14 13 13 13 13 13 13 13 14 14 14 14 14 14 14 14 14 14 14 14 14 14 15 14 15 15 14 14 14 14 14 14 14 14 14 14 14 14
14 14 13 10 11 11 12 12 12 12 13 13 13 12 12 12 12 13 13 13 13 14 14 14 14 14 14 14 14 14 14 14 14 14 14 14 14 14 14 14 14 14 14 14 14 14 14 14 14
13 13 10 10 11 11 11 11 12 12 12 12 12 11 11 12 12 13 13 13 13 13 13 14 14 14 14 14 14 14 14 14 14 14 14 14 14 14 14 14 14 14 14 14 14 14 14 13 13
13 10 9 10 10 11 10 11 12 11 11 11 11 10 11 12 12 12 12 12 13 13 13 13 13 13 13 13 14 14 14 14 14 14 14 14 14 14 14 14 13 13 13 13 13 13 13 13 13
11 8 9 10 10 11 11 11 11 10 10 11 11 10 10 11 11 12 12 12 12 12 12 13 13 13 13 13 13 13 14 14 14 13 14 14 14 14 13 13 13 13 13 13 13 13 13 13 13
11 8 9 9 9 10 10 11 11 10 10 11 11 10 10 11 11 11 11 12 12 12 12 12 12 12 12 13 13 13 13 13 13 13 13 13 13 13 13 13 13 13 13 13 13 13 13 13 12
11 8 8 9 9 10 10 10 10 10 10 10 10 10 10 10 10 11 11 11 12 12 12 12 12 12 12 12 12 13 13 13 13 13 13 13 13 13 13 13 13 13 13 13 13 13 12 12 12
9 7 8 9 9 9 9 9 9 9 9 9 9 10 10 10 10 10 11 11 11 11 11 11 12 12 12 12 12 12 12 12 12 12 12 12 13 13 13 12 12 12 12 12 12 12 12 12 12
8 7 8 9 9 9 9 9 9 9 8 9 9 9 10 10 10 10 10 10 10 11 11 11 11 11 11 11 11 12 12 12 12 12 12 12 12 12 12 12 12 12 12 12 12 12 12 12 12
7 7 8 8 9 9 8 8 8 8 9 10 10 10 9 9 9 10 10 10 10 10 10 10 11 11 11 11 11 11 11 11 11 11 12 12 12 12 12 12 12 12 12 11 11 11 11 11 11
7 7 8 8 8 8 8 7 7 7 9 9 9 9 9 9 9 9 9 9 10 10 10 10 10 10 10 10 11 11 11 11 11 11 11 11 11 11 11 11 11 11 11 11 11 11 11 11 11
7 7 7 7 7 7 7 7 7 7 9 9 9 9 8 9 9 9 9 9 9 9 9 10 10 10 10 10 10 10 10 10 10 10 10 10 10 11 11 11 11 11 11 11 11 11 11 11 10
7 7 7 7 7 7 7 7 6 8 8 8 8 8 8 8 8 8 9 9 9 9 9 9 9 9 9 10 10 10 10 10 10 10 10 10 10 10 10 10 10 10 10 10 10 10 10 10 10
7 6 6 7 6 7 7 7 7 8 7 7 7 8 8 8 8 8 8 8 8 8 9 9 9 9 9 9 9 9 9 9 9 9 9 9 9 10 10 10 10 10 10 10 10 10 10 10 9
6 5 6 6 6 6 6 6 6 7 7 6 6 7 7 7 7 8 8 8 8 8 8 8 8 8 8 8 8 8 9 9 9 9 9 9 9 9 9 9 9 9 9 9 9 9 9 9 9
6 5 5 6 6 5 5 5 5 6 6 6 6 6 6 7 7 7 7 7 7 7 8 8 8 8 8 8 8 8 8 8 8 8 9 9 9 9 9 9 9 9 9 9 9 8 8 8 8
5 5 5 5 6 5 4 5 5 6 5 5 5 6 6 6 7 6 6 7 7 7 7 7 7 7 7 7 8 8 8 8 8 8 8 8 8 8 8 8 8 8 8 8 8 8 8 8 7
5 5 5 5 5 5 4 4 5 5 5 5 5 6 6 6 6 6 6 6 6 6 7 7 7 7 7 7 7 7 7 7 7 8 8 8 8 8 8 7 7 8 8 8 7 7 7 7 7
5 4 4 4 4 4 4 4 5 5 5 5 5 6 6 6 6 6 6 6 6 6 6 6 6 6 6 6 6 6 7 7 7 7 7 7 7 7 7 7 7 7 7 7 7 7 7 7 7
5 5 5 4 4 3 4 4 4 4 4 4 4 5 5 5 5 5 5 5 5 6 6 6 6 6 6 6 6 6 6 6 6 6 6 6 6 6 7 7 7 7 7 7 7 7 6 6 6
4 4 4 3 3 2 3 3 4 3 4 4 4 4 5 5 5 5 5 5 5 5 5 5 5 5 5 6 6 6 6 6 6 5 6 6 6 6 6 6 6 6 6 6 6 6 6 6 6
3 3 3 1 2 3 3 3 4 3 4 4 3 4 5 5 5 5 5 5 5 5 5 5 5 5 5 5 5 5 5 5 5 5 5 5 5 5 5 5 6 6 6 6 6 6 6 6 5
3 2 3 3 2 2 2 2 3 3 3 3 3 4 4 4 4 4 4 4 5 5 5 4 4 5 5 4 4 4 4 4 4 4 4 4 4 5 5 5 5 5 5 5 5 5 5 5 5
2 3 3 3 3 2 2 2 3 3 3 3 3 4 4 4 4 4 4 4 4 4 4 4 4 4 4 4 4 4 4 4 4 4 4 4 4 4 4 4 4 4 4 4 5 5 5 5 5
2 1 2 1 1 1 2 2 3 3 3 2 3 3 3 4 4 4 3 4 4 4 4 4 4 4 4 3 4 4 4 3 3 3 3 3 3 3 3 3 4 4 4 4 4 4 4 4 4
2 1 0 1 3 3 3 3 3 3 2 2 1 2 3 3 3 3 3 3 3 3 3 3 3 3 3 3 3 3 3 3 3 3 3 3 3 3 3 3 3 3 3 3 4 3 3 3 3
1 1 1 0 1 2 3 4 3 2 2 1 1 2 2 3 3 3 3 3 2 2 3 3 3 2 2 2 3 3 3 2 2 2 2 2 2 2 2 2 3 3 3 3 3 3 3 3 3
1 1 0 1 1 -0 1 2 3 1 1 1 1 2 2 2 2 2 2 2 2 2 2 2 2 2 2 2 2 2 2 2 2 2 2 2 2 2 2 2 2 2 3 3 2 3 2 2 2
Wind_Speed
8 5 3 4 5 3 4 5 3 2 1 0 0 2 4 4 3 2 2 2 2 1 1 3 4 5 6 7 7 7 7 7 7 7 7 8 8 8 8 8 8 8 8 8 8 8 8 8 8
3 3 5 5 4 2 5 5 4 3 2 1 2 2 2 1 1 1 2 3 2 2 3 2 4 6 6 7 7 7 6 6 6 6 7 7 7 7 7 7 7 7 7 7 7 7 7 7 7
2 4 4 4 4 6 5 3 4 1 0 1 2 2 1 0 1 1 2 2 4 4 4 4 5 6 6 6 6 6 6 6 6 5 6 6 7 6 6 7 7 6 6 6 7 7 7 7 7
3 5 5 4 5 5 4 1 2 1 2 2 2 2 1 3 2 1 2 3 5 5 5 5 6 6 5 5 5 6 5 5 5 5 5 5 5 5 6 6 6 6 5 6 6 6 6 5 6
4 4 3 1 5 4 3 2 2 1 0 1 2 1 1 4 4 4 4 4 4 4 5 5 5 5 5 5 5 5 5 5 5 5 5 5 4 4 4 5 5 5 5 5 5 5 5 5 5
4 4 4 4 5 3 2 2 1 1 1 1 2 2 1 2 4 4 5 4 4 4 5 6 5 5 5 5 4 4 4 4 4 4 4 4 4 5 5 5 5 4 4 4 5 5 5 4 4
4 4 4 4 3 3 2 0 2 2 1 2 2 3 1 2 3 3 4 4 5 5 5 6 5 5 5 4 4 4 4 4 4 3 3 3 4 3 4 4 4 4 4 4 4 4 4 4 3
4 5 3 3 4 4 1 1 0 2 2 0 2 4 4 2 2 3 4 5 5 5 5 5 5 5 4 4 4 4 3 4 4 4 3 3 3 3 2 3 3 3 3 3 3 3 3 3 2
4 3 4 5 6 4 0 1 2 1 2 1 1 1 2 1 2 4 4 4 4 5 5 5 5 4 4 3 3 4 3 3 3 2 3 3 2 1 1 1 2 2 3 2 3 3 2 2 2
4 3 5 3 3 2 1 1 1 1 1 1 2 2 2 2 2 2 2 1 2 2 3 4 4 4 3 3 3 3 2 3 3 2 2 2 2 1 2 2 2 2 2 2 3 2 2 2 1
4 5 2 1 0 1 1 1 0 2 3 5 4 2 1 1 1 1 1 0 1 1 2 2 3 4 3 2 2 2 2 2 2 3 2 2 2 2 2 2 2 1 1 1 2 1 1 2 1
3 2 2 1 1 0 1 1 1 3 5 3 3 4 3 3 3 2 2 1 1 1 2 2 2 3 3 2 1 2 2 2 2 2 2 2 1 1 1 1 1 1 0 0 0 0 1 1 1
2 2 1 1 1 1 1 2 2 4 5 1 1 2 4 4 3 3 2 2 1 1 3 2 2 2 2 2 1 1 1 1 1 1 1 1 0 0 0 0 0 0 0 1 1 1 1 1 1
2 1 1 2 2 1 1 4 2 7 2 1 1 3 3 3 3 2 1 2 2 2 2 2 1 1 2 1 1 1 1 1 1 1 1 1 1 1 1 1 1 1 1 2 2 2 2 2 2
1 1 3 2 2 1 0 5 5 6 2 2 3 3 3 3 2 3 4 3 3 2 2 2 2 1 1 1 2 2 2 1 1 2 2 2 2 1 1 1 2 2 2 1 1 2 2 2 1
2 2 3 3 0 1 2 8 6 3 3 4 4 3 4 4 4 4 3 2 2 2 2 3 2 1 1 1 2 2 2 2 2 3 3 3 3 2 1 1 2 3 2 1 2 2 2 2 2
2 1 4 5 1 1 3 7 7 2 3 5 5 4 4 4 4 4 3 2 1 2 2 2 2 1 2 2 2 2 2 2 2 3 3 3 3 3 2 2 2 2 2 2 2 2 2 2 2
4 3 3 4 2 0 4 8 10 5 4 5 5 5 4 5 6 4 3 2 2 1 1 2 2 2 1 1 1 2 2 2 2 2 3 3 3 3 3 2 3 2 1 2 2 2 3 2 2
3 3 4 5 3 2 6 10 12 8 5 6 6 5 5 6 4 3 2 2 1 1 2 2 3 3 1 1 1 1 2 2 2 2 3 3 4 3 3 2 3 2 3 3 3 2 2 2 1
3 4 5 5 2 3 6 11 11 8 6 7 7 6 6 5 4 3 3 2 2 2 3 3 3 3 2 1 1 2 2 2 2 3 3 3 3 3 3 3 3 3 3 3 3 2 2 2 2
4 5 5 5 5 3 4 8 7 5 4 4 4 5 5 5 5 4 4 3 2 3 4 4 4 4 3 2 1 1 1 2 2 2 3 3 3 3 3 3 3 3 3 4 4 4 4 3 3
5 4 4 4 2 4 1 6 7 5 5 5 5 4 5 5 4 4 4 4 4 4 3 3 4 4 3 2 2 2 2 3 3 3 3 3 3 3 3 3 3 4 4 4 4 4 4 4 4
4 1 1 2 2 4 2 4 9 3 5 7 5 5 5 5 4 5 5 5 4 3 3 3 4 4 3 2 3 3 3 3 3 3 3 4 3 3 3 4 3 4 4 4 4 4 4 4 4
2 2 2 2 2 4 5 5 7 4 5 6 5 4 4 4 4 4 4 3 3 3 3 3 3 4 3 3 3 3 4 4 4 4 4 4 3 3 3 4 3 4 4 4 4 5 5 5 5
3 4 3 4 2 6 2 4 8 6 4 4 5 5 4 3 3 3 4 3 4 4 4 4 3 4 3 3 3 4 5 5 5 5 4 4 3 3 3 3 3 3 3 4 4 4 5 5 5
2 4 4 4 4 5 2 6 7 4 4 4 3 2 2 2 2 3 4 4 4 5 5 4 4 4 4 4 4 4 4 4 4 5 4 4 4 4 3 3 3 3 3 4 3 3 4 4 5
3 2 3 3 1 4 6 7 7 3 5 5 4 3 3 3 3 3 4 4 4 4 4 4 4 5 4 4 4 4 4 4 5 5 4 4 4 3 3 3 3 3 3 4 3 3 3 3 3
2 5 3 3 1 4 6 5 5 5 5 5 5 5 5 4 4 4 4 4 4 4 4 4 4 4 4 4 4 4 4 5 5 4 4 4 4 3 3 3 3 3 3 3 3 2 2 3 2
2 2 3 2 3 3 4 6 3 4 4 4 5 5 5 5 5 5 5 5 5 5 4 4 4 4 4 4 4 4 5 5 4 4 5 4 4 4 4 4 3 4 3 3 3 3 2 2 2
2 3 5 3 3 3 3 7 3 3 3 3 5 5 5 5 5 5 5 5 5 5 5 4 4 4 5 5 4 5 5 4 4 5 5 4 4 4 4 4 4 4 3 3 3 3 3 3 3
Wind_Direction
353 8 55 56 60 59 229 234 210 216 220 264 96 128 143 155 162 191 323 22 41 70 97 130 128 128 123 119 113 111 109 107 109 114 115 115 112 108 111 112 111 109 106 105 107 108 109 108 107
359 28 56 63 107 195 252 230 212 213 182 73 32 72 86 76 31 41 356 348 41 69 80 105 116 120 121 119 118 111 112 113 109 113 118 118 115 113 115 117 113 111 110 108 107 106 106 109 111
27 50 86 90 150 195 229 221 210 266 320 70 38 31 104 143 354 343 334 10 54 55 54 67 95 112 116 122 121 116 115 113 114 110 113 117 117 117 118 122 119 119 116 116 114 110 110 109 108
73 53 62 101 209 225 224 231 167 94 24 41 93 15 6 26 331 324 16 57 69 52 48 59 81 94 99 112 121 122 119 112 105 105 105 117 119 123 123 123 122 124 126 125 121 116 114 115 111
60 83 94 191 235 248 254 263 194 135 94 25 104 113 325 0 10 37 53 62 72 53 46 52 71 88 87 92 101 112 118 114 108 101 98 106 112 113 116 117 123 125 131 136 131 124 122 122 118
64 80 128 213 242 267 281 282 155 151 173 49 100 129 257 7 27 27 42 57 64 63 48 48 62 75 82 83 93 100 112 119 110 105 99 94 101 109 113 115 120 123 127 130 132 132 133 133 128
115 122 178 196 229 260 268 306 155 166 187 219 160 146 236 342 2 17 37 47 53 57 52 46 53 60 70 74 76 83 99 108 109 105 100 96 90 111 122 122 128 131 131 128 130 133 142 143 142
123 124 163 200 210 238 282 20 61 150 211 316 138 162 211 251 349 21 38 40 41 41 41 37 40 48 56 65 67 61 74 91 100 97 89 86 87 88 123 122 129 138 140 140 141 137 137 145 147
87 98 198 210 201 223 193 56 355 29 112 7 301 212 236 105 48 43 34 24 28 26 22 23 28 32 39 59 59 58 55 60 73 89 86 82 70 74 103 112 121 138 149 152 154 152 144 124 129
101 167 220 214 193 189 183 162 212 52 8 295 323 358 66 100 105 86 37 15 20 1 356 10 10 16 31 43 46 57 58 52 49 50 75 80 62 61 86 102 109 134 156 166 172 168 139 103 103
147 187 213 263 230 172 230 298 285 158 244 231 225 212 152 122 121 159 201 232 242 277 334 346 358 8 20 30 42 49 53 51 42 37 42 55 69 57 65 67 68 75 154 161 189 153 108 104 99
150 219 209 278 5 18 234 257 294 230 240 239 208 174 166 173 208 219 205 229 294 305 304 326 349 12 7 13 30 42 38 34 24 18 38 51 43 45 52 71 49 33 234 176 142 98 106 124 156
191 230 299 267 6 317 299 263 259 266 267 280 124 149 186 196 222 240 222 206 240 297 299 312 337 360 5 5 358 13 5 357 342 13 23 44 54 234 219 168 158 314 255 206 196 169 170 177 197
192 194 289 308 300 292 241 281 256 259 253 216 190 219 227 223 230 249 239 223 239 270 303 299 320 345 6 358 322 305 317 320 331 332 325 293 270 255 232 216 217 241 241 231 224 208 195 198 205
92 2 328 295 267 257 272 304 248 251 204 224 241 243 246 252 245 235 235 230 229 252 291 306 290 348 353 333 323 317 302 290 284 297 293 284 274 259 253 247 230 238 245 238 235 212 189 191 210
36 12 298 296 267 249 161 267 273 250 190 240 253 254 251 255 246 248 249 247 237 243 277 302 304 323 315 302 303 308 300 283 283 297 298 288 282 269 261 242 247 254 235 220 204 208 211 218 225
37 262 263 294 294 125 184 254 278 285 207 243 253 252 257 271 275 264 258 254 246 246 259 290 298 272 275 280 286 284 298 292 291 297 293 289 285 276 265 256 259 261 232 209 220 224 218 229 236
217 229 256 268 301 232 243 261 276 280 244 246 249 250 255 261 263 266 267 275 277 270 267 271 294 274 274 279 298 301 306 303 306 294 291 286 280 273 266 261 263 248 224 224 214 235 226 223 223
191 211 263 274 292 276 262 271 275 277 260 254 253 248 249 255 263 266 263 270 289 308 296 277 280 274 266 284 274 270 277 282 284 278 283 287 284 272 250 262 256 237 224 236 231 235 227 217 180
222 247 267 288 309 276 282 280 273 261 245 237 238 240 244 261 286 281 269 258 251 267 279 276 276 269 248 239 228 226 245 253 260 275 289 285 282 278 258 243 241 236 231 239 236 231 223 224 192
252 230 243 264 320 331 316 297 275 271 253 251 244 236 233 234 246 259 265 262 261 266 266 271 276 269 259 249 239 293 318 307 298 292 278 282 282 276 262 246 244 239 230 236 236 224 217 223 222
255 253 240 253 300 295 7 291 285 279 285 271 265 259 249 249 245 249 255 264 259 260 265 272 275 267 261 245 227 224 242 261 267 270 273 282 283 275 271 259 244 238 234 239 242 235 236 219 220
222 296 274 269 230 292 264 241 282 298 284 276 268 259 256 253 244 246 251 252 259 266 274 275 273 270 261 242 225 226 250 260 278 281 286 284 275 271 272 265 251 245 246 242 239 246 240 231 224
160 51 34 38 67 272 239 209 279 258 255 277 280 271 258 251 252 259 262 264 281 294 296 288 278 283 276 251 235 228 238 254 269 277 276 278 276 269 262 265 252 248 250 248 242 239 240 235 228
72 76 13 348 334 255 229 218 254 265 265 260 265 270 262 248 259 270 276 283 289 297 296 283 273 286 283 261 247 239 238 241 246 258 265 269 272 272 268 268 259 256 253 258 254 247 246 237 227
188 149 167 220 249 283 273 241 259 281 295 289 265 266 286 285 291 291 288 289 292 291 285 274 274 279 279 265 257 246 238 237 246 253 254 257 257 258 254 254 257 264 267 265 259 260 260 248 233
146 181 178 150 266 281 271 281 299 304 326 337 341 340 315 316 320 310 305 291 291 286 280 274 274 277 274 267 263 256 243 238 246 252 253 257 260 259 244 241 249 258 260 258 251 256 264 255 242
143 151 114 142 212 276 289 279 274 294 308 324 325 314 305 317 321 310 305 305 307 303 295 291 275 271 272 265 265 266 252 244 243 250 257 261 260 253 246 239 241 249 251 255 252 257 255 249 247
128 132 143 150 176 197 281 278 245 261 279 284 287 296 303 303 302 301 302 304 304 308 306 305 299 298 292 281 275 271 262 255 249 249 255 255 255 250 250 246 244 248 253 255 253 254 243 247 248
193 189 161 175 232 203 230 271 293 274 292 294 301 311 320 315 308 305 303 309 311 306 304 299 298 297 290 288 280 271 264 259 250 250 253 248 248 244 241 242 242 245 247 242 240 251 245 238 233
Height
1489 1490 1492 1495 1499 1510 1510 1504 1500 1499 1499 1498 1497 1498 1498 1501 1504 1508 1503 1502 1502 1503 1504 1505 1507 1508 1509 1510 1511 1512 1512 1513 1514 1514 1515 1515 1516 1517 1518 1518 1519 1519 1520 1520 1521 1521 1521 1522 1522
1489 1491 1494 1495 1505 1514 1509 1501 1499 1497 1497 1497 1497 1497 1498 1499 1500 1501 1501 1501 1502 1503 1504 1505 1506 1507 1508 1509 1510 1511 1512 1512 1513 1514 1514 1515 1516 1516 1517 1518 1518 1519 1519 1520 1520 1521 1521 1522 1522
1489 1491 1494 1498 1507 1509 1502 1497 1497 1496 1496 1496 1497 1497 1498 1499 1500 1500 1501 1501 1502 1503 1504 1505 1506 1507 1508 1509 1509 1510 1511 1512 1513 1513 1514 1514 1515 1516 1516 1517 1517 1518 1519 1519 1520 1520 1520 1521 1521
1490 1492 1495 1502 1504 1501 1497 1495 1495 1495 1496 1496 1497 1498 1499 1500 1500 1500 1500 1501 1502 1503 1503 1504 1505 1506 1507 1508 1509 1509 1510 1511 1512 1513 1513 1514 1514 1514 1515 1516 1517 1517 1518 1519 1519 1519 1520 1520 1521
1490 1492 1499 1505 1502 1498 1496 1495 1495 1495 1496 1497 1497 1498 1498 1499 1499 1499 1500 1500 1501 1502 1503 1504 1504 1505 1506 1507 1507 1508 1509 1510 1511 1511 1512 1513 1513 1513 1514 1514 1515 1516 1517 1517 1518 1518 1519 1519 1520
1490 1493 1504 1506 1500 1496 1495 1494 1495 1495 1496 1496 1497 1498 1498 1499 1498 1499 1499 1500 1501 1502 1502 1503 1504 1504 1505 1506 1506 1507 1508 1508 1509 1510 1510 1511 1512 1512 1513 1513 1514 1514 1515 1516 1517 1517 1518 1518 1519
1491 1496 1501 1502 1500 1497 1495 1494 1494 1495 1495 1496 1497 1498 1497 1498 1498 1498 1499 1499 1500 1501 1502 1502 1503 1504 1504 1505 1505 1506 1506 1507 1507 1508 1509 1509 1510 1511 1511 1512 1513 1513 1514 1515 1515 1516 1516 1517 1517
1489 1495 1500 1501 1499 1496 1494 1493 1493 1494 1494 1496 1496 1496 1496 1497 1497 1498 1498 1499 1499 1500 1501 1501 1502 1502 1503 1503 1504 1504 1505 1505 1506 1506 1507 1508 1508 1509 1510 1510 1511 1512 1512 1513 1514 1514 1515 1515 1516
1490 1498 1501 1499 1497 1494 1493 1493 1493 1493 1494 1494 1495 1495 1495 1496 1496 1496 1497 1497 1498 1499 1499 1500 1501 1501 1501 1502 1502 1503 1503 1504 1504 1504 1505 1506 1506 1507 1508 1508 1509 1510 1511 1511 1512 1513 1513 1514 1514
1491 1498 1496 1493 1492 1492 1492 1492 1493 1493 1493 1493 1493 1493 1494 1494 1494 1494 1495 1495 1496 1497 1498 1498 1499 1499 1500 1500 1501 1501 1501 1501 1502 1502 1503 1503 1504 1505 1506 1506 1507 1508 1508 1509 1510 1510 1511 1511 1512
1490 1494 1492 1492 1491 1491 1492 1492 1492 1492 1492 1491 1491 1491 1491 1492 1493 1493 1494 1494 1495 1496 1496 1497 1497 1497 1498 1498 1499 1499 1499 1499 1500 1500 1500 1501 1502 1503 1503 1504 1505 1505 1506 1507 1507 1508 1508 1509 1509
1491 1491 1491 1491 1491 1491 1491 1491 1492 1491 1490 1489 1489 1489 1490 1490 1491 1491 1492 1493 1493 1494 1494 1495 1495 1495 1495 1496 1496 1496 1496 1497 1497 1498 1498 1498 1499 1500 1500 1501 1502 1502 1503 1504 1504 1505 1505 1506 1507
1490 1490 1490 1491 1490 1491 1491 1491 1491 1489 1488 1488 1488 1488 1488 1488 1489 1490 1491 1491 1492 1492 1492 1493 1493 1493 1493 1494 1494 1494 1494 1495 1495 1495 1495 1496 1496 1497 1497 1498 1499 1499 1500 1501 1501 1502 1502 1503 1504
1490 1490 1490 1490 1490 1490 1490 1489 1490 1485 1486 1486 1486 1486 1487 1487 1487 1487 1488 1488 1489 1490 1490 1491 1491 1491 1491 1491 1492 1491 1492 1492 1493 1493 1493 1493 1493 1494 1495 1495 1496 1496 1497 1498 1498 1499 1499 1500 1500
1490 1491 1490 1489 1489 1489 1490 1488 1486 1483 1485 1484 1484 1484 1485 1485 1485 1485 1486 1486 1486 1487 1488 1488 1488 1488 1488 1489 1489 1489 1490 1489 1490 1490 1490 1491 1491 1491 1491 1492 1492 1493 1493 1494 1495 1496 1496 1496 1496
1490 1493 1493 1489 1488 1489 1492 1489 1483 1482 1483 1482 1482 1482 1482 1483 1483 1483 1484 1484 1484 1484 1485 1485 1485 1485 1486 1486 1486 1486 1487 1487 1487 1487 1488 1488 1488 1488 1488 1489 1489 1489 1490 1491 1491 1492 1492 1492 1492
1494 1496 1494 1490 1488 1488 1490 1488 1482 1481 1481 1480 1480 1479 1479 1479 1480 1480 1481 1481 1481 1481 1482 1482 1482 1483 1483 1483 1483 1483 1483 1484 1484 1484 1484 1485 1485 1485 1485 1485 1486 1486 1486 1487 1487 1488 1488 1488 1488
1494 1496 1494 1492 1489 1489 1490 1486 1481 1479 1479 1478 1477 1477 1476 1476 1476 1477 1478 1478 1478 1479 1479 1479 1479 1480 1480 1480 1480 1480 1480 1480 1480 1481 1481 1481 1482 1482 1482 1482 1482 1482 1483 1483 1483 1484 1484 1485 1485
1491 1493 1494 1491 1489 1490 1488 1484 1479 1476 1476 1475 1474 1474 1474 1473 1474 1475 1475 1475 1475 1476 1476 1476 1476 1476 1476 1476 1476 1476 1475 1476 1476 1477 1477 1478 1478 1478 1478 1478 1478 1478 1479 1479 1480 1480 1480 1480 1481
1491 1493 1493 1491 1488 1488 1487 1482 1476 1473 1472 1471 1470 1470 1470 1471 1471 1471 1472 1472 1473 1473 1473 1473 1473 1473 1473 1473 1473 1473 1472 1472 1472 1473 1474 1474 1474 1474 1474 1474 1474 1474 1475 1475 1476 1476 1476 1476 1477
1490 1492 1491 1491 1489 1488 1488 1480 1474 1469 1468 1468 1467 1467 1467 1468 1468 1468 1469 1469 1469 1469 1470 1470 1470 1470 1469 1469 1469 1469 1468 1468 1468 1469 1469 1470 1470 1470 1470 1470 1470 1470 1471 1471 1471 1472 1472 1472 1473
1490 1488 1489 1489 1492 1494 1492 1490 1473 1469 1467 1465 1464 1464 1464 1465 1465 1465 1466 1466 1466 1466 1467 1467 1467 1466 1466 1466 1465 1465 1464 1463 1464 1465 1465 1465 1465 1466 1466 1466 1466 1466 1466 1467 1467 1468 1468 1468 1468
1489 1488 1490 1490 1493 1496 1493 1494 1475 1470 1467 1463 1461 1461 1462 1462 1462 1462 1463 1463 1463 1463 1463 1463 1463 1462 1462 1461 1461 1461 1460 1460 1461 1461 1460 1460 1461 1461 1461 1461 1462 1462 1462 1462 1463 1463 1463 1463 1463
1488 1490 1492 1495 1497 1497 1491 1492 1478 1472 1466 1461 1460 1459 1459 1460 1460 1459 1460 1460 1460 1459 1459 1460 1459 1458 1458 1457 1457 1457 1456 1456 1456 1456 1455 1455 1455 1456 1456 1456 1457 1457 1457 1458 1458 1458 1458 1458 1458
1489 1495 1499 1498 1504 1496 1489 1488 1475 1465 1462 1460 1458 1457 1457 1457 1457 1457 1457 1456 1456 1456 1456 1456 1455 1454 1454 1453 1453 1452 1452 1452 1452 1451 1451 1450 1450 1450 1451 1452 1452 1452 1453 1453 1453 1453 1453 1453 1453
1491 1493 1499 1498 1498 1494 1489 1484 1469 1462 1460 1458 1457 1456 1455 1455 1455 1455 1454 1454 1453 1453 1453 1452 1451 1450 1450 1449 1448 1448 1447 1447 1447 1447 1447 1446 1446 1445 1446 1447 1447 1448 1448 1448 1448 1449 1449 1448 1448
1491 1495 1494 1501 1504 1499 1487 1479 1467 1459 1458 1456 1455 1454 1454 1454 1453 1453 1453 1452 1451 1451 1450 1448 1447 1446 1446 1445 1444 1443 1443 1443 1442 1442 1442 1442 1441 1441 1442 1442 1442 1443 1443 1444 1444 1444 1444 1444 1444
1490 1492 1498 1499 1496 1490 1482 1479 1471 1461 1459 1458 1456 1454 1453 1452 1452 1451 1450 1450 1449 1448 1447 1446 1444 1443 1442 1441 1440 1439 1438 1438 1438 1438 1437 1437 1437 1437 1437 1437 1438 1438 1439 1440 1440 1439 1439 1440 1440
1492 1494 1495 1498 1498 1495 1487 1475 1463 1462 1460 1458 1456 1454 1453 1452 1451 1449 1448 1447 1446 1445 1444 1443 1441 1440 1439 1437 1436 1434 1434 1433 1433 1433 1433 1433 1433 1433 1433 1433 1433 1434 1434 1435 1435 1435 1435 1435 1435
1490 1491 1493 1494 1496 1499 1495 1479 1461 1460 1458 1457 1456 1454 1453 1451 1450 1448 1447 1445 1444 1443 1441 1440 1438 1437 1435 1433 1432 1430 1429 1429 1428 1428 1428 1429 1429 1429 1429 1429 1430 1430 1430 1430 1430 1430 1431 1431 1431